Weather in Ishkhoy-Yurt

Russia / Chechen Republic     43°12′56″N   46°23′24″E
temp.,
°C
wind,
m/s
gust,
m/s
humid.,
%
clouds,
%
prec.,
mm/h
press.,
hPa
HPBL,
m
18 september, sat
sat1800:00+15ene4771100 0.1 1016434
03:00+14e2485100 0.1 1016148
06:00+15ene1382100 0.0 1016290
09:00+17e337688 0.0 1017597
12:00+21ene545971 0.0 10161152
15:00+21e655844 0.0 10151151
18:00+17ene58765 0.0 1015310
21:00+15e37875 0.0 1016202
19 september, sun
sun1900:00+14ese26922 0.0 1015136
03:00+14se22925 0.0 101551
06:00+14sse119156 0.0 101514
09:00+21e455999 0.0 1015759
12:00+25e664480 0.0 10131195
15:00+24e884391 0.0 1012971
18:00+19e5957100 0.0 1013280
21:00+17ese246998 0.0 101383
20 september, mon
mon2000:00+16w117534 0.0 101311
03:00+15wsw22805 0.0 101222
06:00+15wsw23815 0.0 101333
09:00+22nw345231 0.0 1013566
12:00+27nw44395 0.0 10121191
15:00+28nnw333549 0.0 10111616
18:00+22wsw2255100 0.3 101228
21:00+20s226699 0.6 101424
21 september, tue
tue2100:00+18ssw227114 0.0 101413
03:00+18ssw22711 0.0 101415
06:00+17sw22715 0.0 101512
09:00+24nnw21506 0.0 1015620
12:00+28ne43375 0.0 10131409
15:00+29e55375 0.0 10111444
18:00+21e4762100 0.0 1011201
21:00+19sse1171100 0.0 101218
22 september, wed
wed2200:00+18wsw3476100 0.5 101358
03:00+18wsw377593 0.5 1013149
06:00+18w61178100 0.0 1015437
09:00+20wnw4570100 0.0 1016902
12:00+20nw3370100 0.1 1015836
15:00+19wnw3567100 0.7 1015344
18:00+17w3465100 0.1 1016232
21:00+16wnw2463100 0.1 1016214